• In Deutschland
  • Länderverzeichnis
  • Für 7 Tage
  • Wassertemperatur
  • Satellitenkarten
  • Wetterkarte
  • Widgets
  • user-avatar
    Anmelden

    Stündliche Wetter Singen

    Heute, 17 Dezember, Sonntag

    Zeit Temperatur Niederschläge Wind Luftdruck Luftfeuchtigkeit
    00:00 -1°C° 0,3 mm 2 m/S 724 mmHg 96%
    01:00 -1°C° 0,3 mm 2 m/S 725 mmHg 96%
    02:00 -1°C° 0,4 mm 2 m/S 725 mmHg 96%
    03:00 -1°C° 0,4 mm 2 m/S 725 mmHg 96%
    04:00 -1°C° 0,4 mm 2 m/S 725 mmHg 96%
    05:00 -2°C° 0,3 mm 2 m/S 726 mmHg 95%
    06:00 -2°C° 0,3 mm 2 m/S 726 mmHg 95%
    07:00 -2°C° 0,3 mm 2 m/S 726 mmHg 94%
    08:00 -2°C° 0,1 mm 2 m/S 727 mmHg 93%
    09:00 -2°C° 0,1 mm 2 m/S 727 mmHg 92%
    10:00 -2°C° 0,1 mm 2 m/S 727 mmHg 91%
    11:00 -1°C° 0 mm 2 m/S 728 mmHg 88%
    12:00 -1°C° 0 mm 2 m/S 728 mmHg 86%
    13:00 +1°C° 0 mm 2 m/S 728 mmHg 83%
    14:00 -1°C° 0 mm 2 m/S 728 mmHg 85%
    15:00 -1°C° 0 mm 2 m/S 728 mmHg 87%
    16:00 0°C° 0 mm 1 m/S 729 mmHg 89%
    17:00 0°C° 0 mm 1 m/S 729 mmHg 90%
    18:00 -1°C° 0 mm 1 m/S 730 mmHg 91%
    19:00 -2°C° 0 mm 1 m/S 730 mmHg 92%
    20:00 -2°C° 0 mm 1 m/S 731 mmHg 91%
    21:00 -3°C° 0 mm 1 m/S 731 mmHg 91%
    22:00 -3°C° 0 mm 1 m/S 731 mmHg 91%
    23:00 -3°C° 0 mm 1 m/S 731 mmHg 91%

    Morgen, 18 Dezember, Montag

    Zeit Temperatur Niederschläge Wind Luftdruck Luftfeuchtigkeit
    00:00 -5°C° 0 mm 2 m/S 731 mmHg 91%
    01:00 -5°C° 0 mm 2 m/S 731 mmHg 91%
    02:00 -5°C° 0 mm 2 m/S 731 mmHg 90%
    03:00 -5°C° 0 mm 2 m/S 731 mmHg 89%
    04:00 -5°C° 0 mm 3 m/S 730 mmHg 88%
    05:00 -5°C° 0 mm 3 m/S 730 mmHg 87%
    06:00 -4°C° 0 mm 3 m/S 729 mmHg 86%
    07:00 -4°C° 0 mm 3 m/S 728 mmHg 85%
    08:00 -4°C° 0,4 mm 3 m/S 728 mmHg 87%
    09:00 -2°C° 0,4 mm 3 m/S 727 mmHg 89%
    10:00 -2°C° 0,4 mm 3 m/S 727 mmHg 92%
    11:00 -1°C° 0,7 mm 3 m/S 726 mmHg 92%
    12:00 -1°C° 0,7 mm 3 m/S 726 mmHg 93%
    13:00 +1°C° 0,7 mm 2 m/S 726 mmHg 94%
    14:00 +1°C° 0,4 mm 2 m/S 726 mmHg 95%
    15:00 +2°C° 0,4 mm 2 m/S 726 mmHg 95%
    16:00 +2°C° 0,4 mm 2 m/S 726 mmHg 96%
    17:00 +2°C° 0,4 mm 2 m/S 727 mmHg 96%
    18:00 +2°C° 0,4 mm 2 m/S 727 mmHg 96%
    19:00 +1°C° 0,4 mm 2 m/S 728 mmHg 96%
    20:00 +2°C° 0,2 mm 1 m/S 728 mmHg 96%
    21:00 +2°C° 0,2 mm 1 m/S 729 mmHg 96%
    22:00 +2°C° 0,2 mm 1 m/S 729 mmHg 96%
    23:00 +2°C° 0,1 mm 1 m/S 730 mmHg 96%

    übermorgen, 19 Dezember, Dienstag

    Zeit Temperatur Niederschläge Wind Luftdruck Luftfeuchtigkeit
    00:00 +2°C° 0,1 mm 1 m/S 730 mmHg 96%
    01:00 +2°C° 0,1 mm 1 m/S 731 mmHg 96%
    02:00 +1°C° 0 mm 1 m/S 731 mmHg 96%
    03:00 +1°C° 0 mm 1 m/S 732 mmHg 96%
    04:00 +1°C° 0 mm 1 m/S 732 mmHg 96%
    05:00 +1°C° 0 mm 1 m/S 732 mmHg 96%
    06:00 +1°C° 0 mm 1 m/S 733 mmHg 96%
    07:00 +1°C° 0 mm 1 m/S 733 mmHg 96%
    08:00 +1°C° 0 mm 1 m/S 733 mmHg 96%
    09:00 +1°C° 0 mm 1 m/S 734 mmHg 96%
    10:00 +2°C° 0 mm 1 m/S 734 mmHg 95%
    11:00 +2°C° 0 mm 1 m/S 734 mmHg 95%
    12:00 +3°C° 0 mm 1 m/S 734 mmHg 95%
    13:00 +3°C° 0 mm 1 m/S 734 mmHg 94%
    14:00 +3°C° 0 mm 1 m/S 734 mmHg 94%
    15:00 +3°C° 0 mm 1 m/S 734 mmHg 94%
    16:00 +2°C° 0 mm 1 m/S 735 mmHg 94%
    17:00 +2°C° 0 mm 1 m/S 735 mmHg 94%
    18:00 0°C° 0 mm 0 m/S 735 mmHg 94%
    19:00 0°C° 0 mm 0 m/S 736 mmHg 94%
    20:00 -1°C° 0 mm 0 m/S 736 mmHg 94%
    21:00 0°C° 0 mm 1 m/S 736 mmHg 93%
    22:00 0°C° 0 mm 1 m/S 736 mmHg 93%
    23:00 0°C° 0 mm 1 m/S 736 mmHg 93%

    20 Dezember, Mittwoch

    Zeit Temperatur Niederschläge Wind Luftdruck Luftfeuchtigkeit
    00:00 0°C° 0 mm 1 m/S 736 mmHg 93%
    01:00 +1°C° 0 mm 1 m/S 735 mmHg 93%
    02:00 +1°C° 0,1 mm 1 m/S 735 mmHg 93%
    03:00 +1°C° 0,1 mm 1 m/S 735 mmHg 94%
    04:00 +1°C° 0,1 mm 1 m/S 735 mmHg 94%
    05:00 +1°C° 0,5 mm 1 m/S 735 mmHg 95%
    06:00 +1°C° 0,5 mm 1 m/S 735 mmHg 95%
    07:00 -1°C° 0,5 mm 2 m/S 735 mmHg 96%
    08:00 +1°C° 0,5 mm 2 m/S 735 mmHg 95%
    09:00 +1°C° 0,5 mm 2 m/S 735 mmHg 95%
    10:00 +1°C° 0,5 mm 2 m/S 735 mmHg 94%
    11:00 +2°C° 0,2 mm 2 m/S 735 mmHg 95%
    12:00 +2°C° 0,2 mm 2 m/S 735 mmHg 96%
    13:00 +4°C° 0,2 mm 1 m/S 735 mmHg 96%
    14:00 +4°C° 0,1 mm 1 m/S 735 mmHg 97%
    15:00 +3°C° 0,1 mm 1 m/S 735 mmHg 97%
    16:00 +3°C° 0,1 mm 1 m/S 735 mmHg 98%
    17:00 +3°C° 0,1 mm 1 m/S 735 mmHg 98%
    18:00 +3°C° 0,1 mm 1 m/S 735 mmHg 97%
    19:00 +3°C° 0,1 mm 1 m/S 735 mmHg 97%
    20:00 +3°C° 0 mm 1 m/S 736 mmHg 97%
    21:00 +3°C° 0 mm 1 m/S 736 mmHg 96%
    22:00 +2°C° 0 mm 1 m/S 736 mmHg 95%
    23:00 +2°C° 0 mm 1 m/S 736 mmHg 96%

    21 Dezember, Donnerstag

    Zeit Temperatur Niederschläge Wind Luftdruck Luftfeuchtigkeit
    00:00 +3°C° 0 mm 1 m/S 736 mmHg 96%
    01:00 +3°C° 0 mm 1 m/S 736 mmHg 96%
    02:00 +3°C° 0 mm 1 m/S 736 mmHg 96%
    03:00 +3°C° 0 mm 1 m/S 736 mmHg 97%
    04:00 +3°C° 0 mm 1 m/S 736 mmHg 97%
    05:00 +3°C° 0 mm 1 m/S 736 mmHg 96%
    06:00 +3°C° 0 mm 1 m/S 736 mmHg 96%
    07:00 +3°C° 0 mm 1 m/S 736 mmHg 96%
    08:00 +3°C° 0 mm 1 m/S 736 mmHg 96%
    09:00 +4°C° 0 mm 1 m/S 736 mmHg 96%
    10:00 +4°C° 0 mm 1 m/S 737 mmHg 97%
    11:00 +4°C° 0 mm 1 m/S 736 mmHg 97%
    12:00 +5°C° 0 mm 1 m/S 736 mmHg 98%
    13:00 +5°C° 0 mm 1 m/S 735 mmHg 98%
    14:00 +4°C° 0 mm 2 m/S 735 mmHg 98%
    15:00 +4°C° 0 mm 2 m/S 735 mmHg 98%
    16:00 +3°C° 0 mm 2 m/S 735 mmHg 98%
    17:00 +3°C° 0 mm 2 m/S 735 mmHg 98%
    18:00 +3°C° 0 mm 2 m/S 735 mmHg 97%
    19:00 +3°C° 0 mm 2 m/S 735 mmHg 97%
    20:00 +3°C° 0 mm 2 m/S 735 mmHg 97%
    21:00 +3°C° 0 mm 2 m/S 735 mmHg 96%
    22:00 +3°C° 0 mm 2 m/S 735 mmHg 96%
    23:00 +3°C° 0 mm 2 m/S 734 mmHg 96%

    22 Dezember, Freitag

    Zeit Temperatur Niederschläge Wind Luftdruck Luftfeuchtigkeit
    00:00 +2°C° 0 mm 3 m/S 734 mmHg 96%
    01:00 +2°C° 0 mm 3 m/S 734 mmHg 96%
    02:00 +2°C° 0 mm 3 m/S 734 mmHg 96%
    03:00 +1°C° 0 mm 4 m/S 733 mmHg 96%
    04:00 +1°C° 0 mm 4 m/S 733 mmHg 95%
    05:00 +3°C° 0,6 mm 4 m/S 733 mmHg 95%
    06:00 +2°C° 0,6 mm 5 m/S 733 mmHg 95%
    07:00 +2°C° 0,6 mm 5 m/S 732 mmHg 96%
    08:00 +2°C° 1,2 mm 5 m/S 733 mmHg 96%
    09:00 +2°C° 1,2 mm 5 m/S 734 mmHg 97%
    10:00 +3°C° 1,2 mm 4 m/S 734 mmHg 97%
    11:00 +3°C° 0,2 mm 4 m/S 735 mmHg 95%
    12:00 +3°C° 0,2 mm 4 m/S 735 mmHg 94%
    13:00 +3°C° 0,2 mm 3 m/S 735 mmHg 92%
    14:00 +3°C° 0,1 mm 3 m/S 736 mmHg 92%
    15:00 +3°C° 0,1 mm 2 m/S 736 mmHg 92%
    16:00 +3°C° 0,1 mm 2 m/S 737 mmHg 91%
    17:00 +2°C° 0,1 mm 2 m/S 737 mmHg 92%
    18:00 +2°C° 0,1 mm 2 m/S 738 mmHg 93%
    19:00 +1°C° 0,1 mm 2 m/S 739 mmHg 93%
    20:00 +1°C° 0 mm 2 m/S 739 mmHg 94%
    21:00 +1°C° 0 mm 2 m/S 740 mmHg 94%
    22:00 -1°C° 0 mm 2 m/S 740 mmHg 95%
    23:00 -1°C° 0,1 mm 2 m/S 740 mmHg 94%
    Mehr zeigen